This demonstration page uses our WeatherBlox Daily Observations layout. Learn more.

Left ArrowRight Arrow

Hourly Observations for June 26, 2016

Temp ( °F °C ) Dew Point ( °F °C ) Humidity (%) Winds ( mph kmh ) Pressure ( in mb ) Visibility ( mi km ) Precip ( " mm )
12:53 am 00:53 Clear 71 21.7 52 11.1 51 51 Calm 29.88 1012 10 16 0.00 0.00
1:53 am 01:53 Clear 71 21.7 53 11.7 53 53 NNW 5 7 29.88 1012 10 16 0.00 0.00
2:53 am 02:53 Clear 69 20.6 54 12.2 59 59 Calm 29.88 1012 10 16 0.00 0.00
3:53 am 03:53 Clear 66 18.9 54 12.2 65 65 Calm 29.89 1012 10 16 0.00 0.00
4:53 am 04:53 Clear 65 18.3 54 12.2 68 68 Calm 29.89 1012 10 16 0.00 0.00
5:53 am 05:53 Sunny 64 17.8 54 12.2 70 70 Calm 29.90 1013 10 16 0.00 0.00
6:53 am 06:53 Sunny 69 20.6 56 13.3 63 63 N 5 7 29.91 1013 10 16 0.00 0.00
7:53 am 07:53 Sunny 75 23.9 55 12.8 50 50 Calm 29.92 1013 10 16 0.00 0.00
8:53 am 08:53 Sunny 82 27.8 51 10.6 34 34 N 5 7 29.93 1014 10 16 0.00 0.00
9:53 am 09:53 Sunny 86 30 51 10.6 30 30 VRB 5 7 29.92 1013 10 16 0.00 0.00
10:53 am 10:53 Sunny 91 32.8 50 10 25 25 VRB 5 7 29.92 1013 10 16 0.00 0.00
11:53 am 11:53 Sunny 93 33.9 49 9.4 22 22 VRB 3 6 29.91 1013 10 16 0.00 0.00
12:53 pm 12:53 Sunny 96 35.6 47 8.3 19 19 Calm 29.90 1013 10 16 0.00 0.00
1:53 pm 13:53 Sunny 100 37.8 43 6.1 14 14 SSW 9 15 29.89 1012 10 16 0.00 0.00
2:53 pm 14:53 Sunny 99 37.2 32 0 9 9 VRB 6 9 29.88 1012 10 16 0.00 0.00
3:53 pm 15:53 Sunny 102 38.9 35 1.7 10 10 SSW 7 11 29.86 1011 10 16 0.00 0.00
4:53 pm 16:53 Sunny 101 38.3 36 2.2 10 10 SW 3 6 29.85 1011 10 16 0.00 0.00
5:53 pm 17:53 Sunny 102 38.9 40 4.4 12 12 Calm 29.85 1011 10 16 0.00 0.00
6:53 pm 18:53 Sunny 100 37.8 43 6.1 14 14 SSE 7 11 29.85 1011 10 16 0.00 0.00
7:53 pm 19:53 Sunny 98 36.7 46 7.8 17 17 S 6 9 29.85 1011 10 16 0.00 0.00
8:53 pm 20:53 Clear 92 33.3 48 8.9 22 22 Calm 29.87 1012 10 16 0.00 0.00
9:53 pm 21:53 Clear 86 30 45 7.2 24 24 W 5 7 29.89 1012 10 16 0.00 0.00
10:53 pm 22:53 Clear 81 27.2 53 11.7 38 38 S 5 7 29.90 1013 10 16 0.00 0.00
11:53 pm 23:53 Clear 83 28.3 49 9.4 31 31 N 5 7 29.91 1013 10 16 0.00 0.00

Powered by AerisWeather